Time,TemperatureF,DewpointF,PressureIn,WindDirection,WindDirectionDegrees,WindSpeedMPH,WindSpeedGustMPH,Humidity,HourlyPrecipIn,Conditions,Clouds,dailyrainin,SolarRadiationWatts/m^2,SoftwareType,DateUTC
2013-05-06 00:05:00,73.7,61.2,30.05,SW,229,0.0,0.0,65,0.00,,,0.00,0,Wunderground v.1.15,2013-05-05 21:05:00,
2013-05-06 00:35:00,74.1,61.1,30.05,SW,229,0.0,0.0,64,0.00,,,0.00,0,Wunderground v.1.15,2013-05-05 21:35:00,
2013-05-06 01:45:00,73.6,60.2,30.03,SW,229,0.0,0.0,63,0.00,,,0.00,0,Wunderground v.1.15,2013-05-05 22:45:00,
2013-05-06 02:40:00,73.0,60.5,30.02,SW,229,0.0,0.0,65,0.00,,,0.00,0,Wunderground v.1.15,2013-05-05 23:40:00,
2013-05-06 02:55:00,72.7,60.7,30.02,SW,229,0.0,0.0,66,0.00,,,0.00,0,Wunderground v.1.15,2013-05-05 23:55:00,
2013-05-06 03:25:00,73.1,58.8,30.02,SW,229,0.0,0.0,61,0.00,,,0.00,0,Wunderground v.1.15,2013-05-06 00:25:00,
2013-05-06 04:25:00,75.1,54.1,30.00,SW,229,4.0,4.0,48,0.00,,,0.00,0,Wunderground v.1.15,2013-05-06 01:25:00,
2013-05-06 06:20:00,73.3,55.1,30.02,WSW,246,1.0,2.0,53,0.00,,,0.00,0,Wunderground v.1.15,2013-05-06 03:20:00,
2013-05-06 06:50:00,73.2,54.5,30.03,WSW,246,1.0,1.0,52,0.00,,,0.00,25,Wunderground v.1.15,2013-05-06 03:50:00,
2013-05-06 08:00:00,75.9,55.4,30.05,WSW,246,0.0,0.0,49,0.00,,,0.00,193,Wunderground v.1.15,2013-05-06 05:00:00,
2013-05-06 08:15:00,76.5,55.9,30.06,WSW,246,1.0,1.0,49,0.00,,,0.00,239,Wunderground v.1.15,2013-05-06 05:15:00,
2013-05-06 08:45:00,77.7,56.4,30.06,WSW,246,1.0,5.0,48,0.00,,,0.00,330,Wunderground v.1.15,2013-05-06 05:45:00,
2013-05-06 09:40:00,79.4,57.4,30.06,NNE,23,5.0,8.0,47,0.00,,,0.00,496,Wunderground v.1.15,2013-05-06 06:40:00,
2013-05-06 10:35:00,80.0,58.0,30.06,NE,46,8.0,8.0,47,0.00,,,0.00,640,Wunderground v.1.15,2013-05-06 07:35:00,
2013-05-06 11:25:00,81.6,55.6,30.06,North,5,6.0,8.0,41,0.00,,,0.00,752,Wunderground v.1.15,2013-05-06 08:25:00,
2013-05-06 11:40:00,82.0,56.0,30.07,NE,51,7.0,11.0,41,0.00,,,0.00,773,Wunderground v.1.15,2013-05-06 08:40:00,
2013-05-06 12:05:00,82.3,55.6,30.07,NNE,25,7.0,7.0,40,0.00,,,0.00,814,Wunderground v.1.15,2013-05-06 09:05:00,
2013-05-06 13:20:00,83.5,55.9,30.05,NE,34,7.0,7.0,39,0.00,,,0.00,870,Wunderground v.1.15,2013-05-06 10:20:00,
2013-05-06 13:30:00,82.9,54.7,30.05,NE,49,10.0,12.0,38,0.00,,,0.00,872,Wunderground v.1.15,2013-05-06 10:30:00,
2013-05-06 13:45:00,83.9,54.1,30.05,East,83,8.0,10.0,36,0.00,,,0.00,875,Wunderground v.1.15,2013-05-06 10:45:00,
2013-05-06 16:30:00,85.3,52.9,30.00,NE,35,8.0,8.0,33,0.00,,,0.00,624,Wunderground v.1.15,2013-05-06 13:30:00,
2013-05-06 17:50:00,84.5,50.5,29.98,East,86,8.0,8.0,31,0.00,,,0.00,410,Wunderground v.1.15,2013-05-06 14:50:00,
2013-05-06 18:15:00,83.5,51.4,29.98,NE,40,10.0,10.0,33,0.00,,,0.00,223,Wunderground v.1.15,2013-05-06 15:15:00,
2013-05-06 19:05:00,82.3,50.3,29.98,ENE,69,9.0,9.0,33,0.00,,,0.00,158,Wunderground v.1.15,2013-05-06 16:05:00,
2013-05-06 19:20:00,82.0,50.9,29.98,ESE,105,7.0,7.0,34,0.00,,,0.00,113,Wunderground v.1.15,2013-05-06 16:20:00,
2013-05-06 20:20:00,79.4,50.1,29.99,NE,45,8.0,8.0,36,0.00,,,0.00,0,Wunderground v.1.15,2013-05-06 17:20:00,
2013-05-06 20:30:00,78.9,50.4,30.00,NNE,22,9.0,9.0,37,0.00,,,0.00,0,Wunderground v.1.15,2013-05-06 17:30:00,
2013-05-06 20:45:00,78.4,50.7,30.01,NNE,31,7.0,8.0,38,0.00,,,0.00,0,Wunderground v.1.15,2013-05-06 17:45:00,
2013-05-06 20:55:00,77.9,50.9,30.02,NNE,22,7.0,7.0,39,0.00,,,0.00,0,Wunderground v.1.15,2013-05-06 17:55:00,
2013-05-06 21:05:00,77.3,51.8,30.02,ENE,57,9.0,14.0,41,0.00,,,0.00,0,Wunderground v.1.15,2013-05-06 18:05:00,